Deer Park, WA
on Thursday, November 8, 2012

Thursday
Previous Day Next Day
Daily Summary
 ActualAverageRecord
Temperature
Mean Temperature °F 36°F  
Max Temperature 45°F 45°F 54°F (2004)
Min Temperature 24°F 28°F 24°F (2005)
Degree Days
Heating Degree Days 30 29  
Month to date heating degree days 163 220  
Since 1 July heating degree days 1075 1288  
Cooling Degree Days 0 0  
Month to date cooling degree days 0 0  
Year to date cooling degree days 232 187  
Moisture
Dew Point 29°F   
Average Humidity 71    
Maximum Humidity 96    
Minimum Humidity 45    
Precipitation
Precipitation 0.13 in 0.11 in 0.78 in (2002)
Month to date precipitation 0.30 0.82  
Year to date precipitation 20.30 16.88  
Wind
Wind Speed 9 mph   
Max Wind Speed 18 mph   
Max Gust Speed 24 mph   
Visibility 6 miles   
Events Snow   

Key: T is trace of precipitation, MM is missing value
Source: NWS Daily Summary
Time(PST)TemperatureDew PointHumidity Pressure Visibility Wind DirectionWind SpeedGust SpeedPrecipitationEvents Conditions
12:53 AM 25.0°F 23.0°F 92% 29.99 in 10.0 miles North 4.6 mph - N/A   Partly Cloudy
1:53 AM 30.9°F 27.0°F 85% 29.97 in 10.0 miles North 3.5 mph - N/A   Partly Cloudy
2:53 AM 30.9°F 27.0°F 85% 29.95 in 10.0 miles NNE 8.1 mph - N/A   Clear
3:53 AM 30.9°F 28.0°F 89% 29.94 in 10.0 miles North 10.4 mph - N/A   Clear
4:53 AM 30.0°F 27.0°F 88% 29.93 in 10.0 miles NNE 10.4 mph - N/A   Clear
5:53 AM 25.0°F 23.0°F 92% 29.91 in 10.0 miles NNE 5.8 mph - N/A   Clear
6:53 AM 28.0°F 27.0°F 96% 29.89 in 10.0 miles NE 5.8 mph - N/A   Clear
7:53 AM 33.1°F 28.9°F 85% 29.86 in 10.0 miles NE 6.9 mph - N/A   Clear
8:53 AM 37.0°F 30.0°F 76% 29.83 in 10.0 miles NNE 6.9 mph - N/A   Clear
9:53 AM 41.0°F 28.9°F 62% 29.80 in 10.0 miles NE 11.5 mph - N/A   Clear
10:53 AM 43.0°F 28.9°F 58% 29.78 in 10.0 miles NNE 12.7 mph - N/A   Clear
11:53 AM 43.0°F 28.0°F 56% 29.76 in 10.0 miles NE 8.1 mph - N/A   Clear
12:53 PM 44.1°F 24.1°F 45% 29.74 in 10.0 miles NE 16.1 mph - N/A   Overcast
1:53 PM 43.0°F 24.1°F 47% 29.73 in 10.0 miles NE 15.0 mph 23.0 mph N/A   Overcast
2:53 PM 42.1°F 24.1°F 49% 29.74 in 10.0 miles NE 15.0 mph 24.2 mph N/A   Overcast
3:53 PM 37.9°F 28.0°F 68% 29.77 in 10.0 miles NE 12.7 mph 24.2 mph N/A   Overcast
4:53 PM 34.0°F 30.9°F 89% 29.77 in 7.0 miles NNE 13.8 mph 23.0 mph 0.00 in Snow Light Snow
5:00 PM 33.8°F 30.2°F 87% 29.71 in 9.0 miles NNE 15.0 mph - 0.00 in   Overcast
5:53 PM 34.0°F 32.0°F 92% 29.77 in 10.0 miles North 8.1 mph - 0.00 in   Overcast
6:48 PM 33.8°F 32.0°F 93% 29.71 in 2.5 miles North 6.9 mph - 0.01 in Snow Light Snow
6:49 PM 34.0°F 32.0°F 92% 29.77 in 2.5 miles North 8.1 mph - 0.01 in Snow Light Snow
6:59 PM 33.8°F 32.0°F 93% 29.71 in 1.5 miles NNE 9.2 mph - 0.00 in Snow Light Snow
7:09 PM 33.8°F 32.0°F 93% 29.71 in 1.2 miles North 8.1 mph - 0.01 in Snow Light Snow
7:29 PM 33.8°F 32.0°F 93% 29.70 in 1.5 miles North 9.2 mph - 0.02 in Snow Light Snow
7:53 PM 33.1°F 32.0°F 96% 29.77 in 1.2 miles NNE 9.2 mph - 0.03 in Snow Light Snow
8:25 PM 33.8°F 32.0°F 93% 29.71 in 1.2 miles NNE 6.9 mph - 0.03 in Snow Light Snow
8:53 PM 33.1°F 32.0°F 96% 29.77 in 1.0 miles NNE 5.8 mph - 0.04 in Snow Light Snow
9:09 PM 33.8°F 32.0°F 93% 29.72 in 1.5 miles NNE 4.6 mph - 0.01 in Snow Light Snow
9:42 PM 33.8°F 32.0°F 93% 29.72 in 2.0 miles NNE 6.9 mph - 0.02 in Snow Light Snow
9:53 PM 33.1°F 32.0°F 96% 29.76 in 2.5 miles NNE 6.9 mph - 0.02 in Snow Light Snow
10:12 PM 32.0°F 32.0°F 100% 29.72 in 1.5 miles NNE 9.2 mph - 0.00 in Snow Light Snow
10:35 PM 32.0°F 30.2°F 93% 29.72 in 1.2 miles NNE 6.9 mph - 0.01 in Snow Light Snow
10:53 PM 32.0°F 30.9°F 96% 29.76 in 1.0 miles NNE 9.2 mph - 0.02 in Snow Light Snow
11:06 PM 32.0°F 30.2°F 93% 29.72 in 2.0 miles NNE 8.1 mph - 0.00 in Snow Light Snow
11:31 PM 32.0°F 30.2°F 93% 29.72 in 1.5 miles NE 9.2 mph - 0.00 in Snow Light Snow
11:50 PM 30.2°F 30.2°F 100% 29.72 in 2.0 miles NE 8.1 mph - 0.01 in Snow Light Snow
11:53 PM 30.9°F 30.9°F 100% 29.77 in 2.0 miles NE 6.9 mph - 0.01 in Snow Light Snow
Moon Phase
Nov. 08 Nov. 13 Nov. 20 Nov. 28 Dec. 06
Sunrise:06:46 AM (PST) Moon Rise:12:20 AM (PST)11/8
Sunset:04:20 PM (PST) Moon Set:01:26 PM (PST)11/8

Copyright © 2014 The Weather Underground, Inc.